Time_in_sec,Mx,My,Mz
1314271201.55004025,-0.43309340,-0.18144001,-0.85891455
1314271201.60103464,-0.43196124,-0.17626856,-0.86193568
1314271201.64846659,-0.43396655,-0.17978801,-0.85977143
1314271201.69828606,-0.43486130,-0.18269761,-0.85701853
1314271201.74962282,-0.43317723,-0.17994264,-0.85787052
1314271201.80137491,-0.43257922,-0.18093902,-0.85928649
1314271201.84847474,-0.43277869,-0.17894201,-0.85785520
1314271201.90048218,-0.43316749,-0.18220302,-0.85798568
1314271201.94949746,-0.43562594,-0.18051577,-0.86052299
1314271201.99260855,-0.43521732,-0.18092161,-0.85824436
1314271202.04962611,-0.43362117,-0.17817418,-0.85830635
1314271202.10050726,-0.43415621,-0.17904760,-0.85833031
1314271202.14860129,-0.43472567,-0.18069161,-0.85676068
1314271202.20160151,-0.43199751,-0.18210645,-0.85646242
1314271202.24852490,-0.43558019,-0.18142718,-0.85759884
1314271202.30163407,-0.43451455,-0.18203914,-0.86018348
1314271202.35003710,-0.43419984,-0.17954116,-0.85912412
1314271202.40064454,-0.43253863,-0.17791107,-0.86049902
1314271202.44860673,-0.43386751,-0.18030883,-0.85817206
1314271202.50000787,-0.43337521,-0.18105841,-0.85906595
1314271202.54961085,-0.43342677,-0.18155044,-0.85999262
1314271202.60150838,-0.43474612,-0.18189375,-0.86178762
1314271202.64845252,-0.43338224,-0.18218632,-0.85932297
1314271202.70074511,-0.43299362,-0.18193662,-0.85956764
1314271202.74958229,-0.43433177,-0.18189992,-0.86163151
1314271202.80448103,-0.43224910,-0.18130551,-0.86058986
1314271202.84852576,-0.43233740,-0.17900576,-0.86405671
1314271202.89785743,-0.43389842,-0.17927478,-0.86083132
1314271202.94859004,-0.43297404,-0.18128866,-0.86142623
1314271203.00150299,-0.43414971,-0.18178490,-0.86082703
1314271203.05246878,-0.43499622,-0.18151820,-0.86140716
1314271203.10178638,-0.43229881,-0.17989145,-0.86351794
1314271203.14974523,-0.43376440,-0.18201213,-0.86345321
1314271203.20061207,-0.43234164,-0.17935702,-0.86643916
1314271203.25248575,-0.43314439,-0.18075418,-0.86422217
1314271203.30077410,-0.43337849,-0.18153532,-0.86144739
1314271203.35360789,-0.43353981,-0.17912048,-0.86385930
1314271203.40165353,-0.43247196,-0.18013364,-0.86418849
1314271203.45248866,-0.43370306,-0.17961551,-0.86439490
1314271203.50162745,-0.43410659,-0.18099160,-0.86454016
1314271203.54961753,-0.43302578,-0.18062705,-0.86448133
1314271203.60053635,-0.43266881,-0.17936751,-0.86513281
1314271203.64861107,-0.43160284,-0.17912558,-0.86533886
1314271203.70161295,-0.43411535,-0.17885688,-0.86442399
1314271203.74949384,-0.43456826,-0.18112621,-0.86324054
1314271203.80150914,-0.43440992,-0.18000288,-0.86270988
1314271203.84847832,-0.43435761,-0.17948663,-0.86403567
1314271203.88963628,-0.43282992,-0.18126751,-0.86353803
1314271203.94947505,-0.43461743,-0.18001190,-0.86166173
1314271204.00098443,-0.43354660,-0.17723708,-0.86374116
1314271204.04958391,-0.43294749,-0.18051654,-0.86315280
1314271204.10245442,-0.43348333,-0.17925675,-0.86292768
1314271204.14959264,-0.43347630,-0.18129002,-0.86079234
1314271204.20099854,-0.43476981,-0.18088542,-0.86206138
1314271204.24848080,-0.43389875,-0.18012869,-0.86320984
1314271204.30152369,-0.43471369,-0.18187560,-0.86350828
1314271204.35033536,-0.43440607,-0.17834811,-0.86470932
1314271204.40146446,-0.43312660,-0.18100853,-0.86395431
1314271204.44850683,-0.43180442,-0.17888479,-0.86415970
1314271204.48846865,-0.43468681,-0.18024959,-0.86285633
1314271204.55035973,-0.43198913,-0.17877270,-0.86271369
1314271204.60159922,-0.43332395,-0.17725530,-0.86227095
1314271204.64853048,-0.43443343,-0.18014820,-0.86085528
1314271204.70223355,-0.43491518,-0.18063104,-0.86220407
1314271204.74949908,-0.43340015,-0.17977455,-0.86159420
1314271204.80129457,-0.42980781,-0.17639183,-0.86432952
1314271204.84870028,-0.43127641,-0.17913929,-0.86439276
1314271204.89817691,-0.43385926,-0.18214381,-0.86279517
1314271204.94893575,-0.43409050,-0.18114451,-0.86202079
1314271205.00119233,-0.43424183,-0.18113993,-0.86229444
1314271205.05245900,-0.43387398,-0.18025890,-0.86281002
1314271205.10067105,-0.43189600,-0.17853956,-0.86112022
1314271205.15006661,-0.43418127,-0.17977129,-0.86110872
1314271205.20151401,-0.43273163,-0.17865136,-0.86156446
1314271205.24953032,-0.43121293,-0.17814764,-0.86320406
1314271205.30046797,-0.43361765,-0.18053450,-0.86080599
1314271205.34959936,-0.43318173,-0.18014403,-0.86250645
1314271205.40160561,-0.43303850,-0.18215464,-0.86261588
1314271205.44847202,-0.43451348,-0.18116103,-0.86005741
1314271205.50207758,-0.43497533,-0.18014200,-0.86088622
1314271205.54995394,-0.43261176,-0.17879975,-0.85956913
1314271205.58984303,-0.43356153,-0.17836349,-0.86413115
1314271205.64961338,-0.43294302,-0.17715396,-0.86039513
1314271205.70047069,-0.43258020,-0.18081336,-0.85928744
1314271205.74859643,-0.43296170,-0.17893137,-0.85866064
1314271205.80146313,-0.43420783,-0.18054341,-0.85938215
1314271205.84855604,-0.43337631,-0.17877533,-0.86107028
1314271205.90079212,-0.43411803,-0.18179096,-0.86029524
1314271205.94984484,-0.43301237,-0.18055284,-0.85971147
1314271206.00045729,-0.43359682,-0.18016207,-0.86041009
1314271206.04958224,-0.43209180,-0.17689532,-0.86193848
1314271206.10046411,-0.43325970,-0.17940064,-0.86145645
1314271206.14950085,-0.43250415,-0.18030167,-0.86021435
1314271206.20143580,-0.43332693,-0.18104328,-0.86052066
1314271206.24962497,-0.43370172,-0.18204845,-0.86013710
1314271206.30062270,-0.43380755,-0.17964423,-0.86161834
1314271206.34959316,-0.43134919,-0.17917408,-0.86108440
1314271206.40104818,-0.43360296,-0.17925823,-0.86266947
1314271206.44948053,-0.43429697,-0.18027541,-0.86084658
1314271206.50044107,-0.43384194,-0.17941105,-0.85989964
1314271206.54948235,-0.43365100,-0.17942321,-0.85896122
1314271206.60143709,-0.43354428,-0.17979570,-0.85948235
1314271206.65252995,-0.43345243,-0.18029079,-0.86026841
1314271206.70045400,-0.43474978,-0.18154098,-0.85953808
1314271206.74963474,-0.43317953,-0.18054523,-0.86025101
1314271206.79248261,-0.43270072,-0.17968541,-0.85890520
1314271206.84946918,-0.43135503,-0.17741634,-0.86096525
1314271206.90152264,-0.43271175,-0.18131445,-0.85929126
1314271206.94953537,-0.43399826,-0.17978194,-0.86030328
1314271207.00101137,-0.43381327,-0.18004391,-0.85949588
1314271207.05239034,-0.43423757,-0.18078867,-0.85991198
1314271207.10049438,-0.43286717,-0.17965358,-0.86169720
1314271207.14986396,-0.43312529,-0.18028030,-0.86157477
1314271207.20147681,-0.43102092,-0.17728169,-0.86213964
1314271207.24857092,-0.43354160,-0.18002281,-0.86173290
1314271207.30043983,-0.43399072,-0.18164113,-0.86267394
1314271207.35020900,-0.43136907,-0.17967218,-0.86147928
1314271207.40089393,-0.43396172,-0.18142009,-0.85989159
1314271207.44845295,-0.43554205,-0.18100935,-0.86144203
1314271207.50051522,-0.43381652,-0.18052083,-0.86187732
1314271207.54947591,-0.43177450,-0.17979318,-0.86150146
1314271207.60150290,-0.43390167,-0.17975171,-0.86321276
1314271207.64852738,-0.43255383,-0.17888761,-0.86314243
1314271207.69819379,-0.43457904,-0.17974395,-0.86325139
1314271207.74850965,-0.43133643,-0.18080766,-0.86107153
1314271207.80095577,-0.43137306,-0.18017331,-0.86160833
1314271207.84849238,-0.43395203,-0.17735808,-0.86376333
1314271207.90156317,-0.43226391,-0.18042436,-0.86072975
1314271207.94985342,-0.43339035,-0.18103115,-0.86158431
1314271208.00155807,-0.43285364,-0.17709801,-0.86569011
1314271208.04858208,-0.43128815,-0.18079256,-0.86252630
1314271208.09906793,-0.43157095,-0.18028529,-0.86267865
1314271208.15013242,-0.43147013,-0.17990379,-0.86320573
1314271208.20051551,-0.43507442,-0.18062493,-0.86261064
1314271208.25252080,-0.43351480,-0.17940056,-0.86120600
1314271208.30149293,-0.43366316,-0.17977296,-0.86147666
1314271208.34972763,-0.43130982,-0.17903177,-0.86267310
1314271208.40060234,-0.43253854,-0.18006849,-0.85849565
1314271208.44860101,-0.43165773,-0.17841095,-0.86163753
1314271208.49791288,-0.43247727,-0.17867565,-0.85956240
1314271208.54994416,-0.43279487,-0.17979288,-0.86049968
1314271208.60131383,-0.43209660,-0.17842443,-0.85994005
1314271208.64845085,-0.43295997,-0.18219401,-0.85903388
1314271208.70060492,-0.43396270,-0.18129443,-0.85989255
1314271208.74950027,-0.43253061,-0.18007000,-0.85836267
1314271208.80084777,-0.43277225,-0.17851812,-0.86223018
1314271208.84849429,-0.43206888,-0.17893162,-0.85953724
1314271208.89788580,-0.43268090,-0.18335228,-0.85675704
1314271208.94846797,-0.43210435,-0.17957656,-0.85794461
1314271209.00053000,-0.43346405,-0.17993651,-0.85815185
1314271209.05027080,-0.43408599,-0.18094313,-0.85738486
1314271209.10050011,-0.43354404,-0.17994556,-0.85722888
1314271209.14979076,-0.43379217,-0.17982134,-0.85684645
1314271209.20093274,-0.43375352,-0.17970327,-0.85618269
1314271209.24962544,-0.43220809,-0.17958108,-0.85742050
1314271209.30047178,-0.43345684,-0.17996223,-0.85576642
1314271209.35363054,-0.43263030,-0.17856961,-0.85758454
1314271209.40049410,-0.43311560,-0.18085709,-0.85468042
1314271209.45090699,-0.43392539,-0.18338218,-0.85272050
1314271209.50050306,-0.43447611,-0.18224502,-0.85276026
1314271209.54965591,-0.43283847,-0.18076026,-0.85228056
1314271209.60049224,-0.43164623,-0.17708164,-0.85674459
1314271209.64852858,-0.43520710,-0.18032055,-0.85573095
1314271209.70151353,-0.43304926,-0.18124619,-0.85361385
1314271209.74959159,-0.43058300,-0.18077756,-0.85294694
1314271209.80151749,-0.43394527,-0.18071908,-0.85499370
1314271209.85248470,-0.43194482,-0.17973253,-0.85528457
1314271209.90079427,-0.43396872,-0.17986064,-0.85301399
1314271209.95243812,-0.43395126,-0.18096890,-0.85512465
1314271210.00095367,-0.43290505,-0.18022127,-0.85560060
1314271210.04875827,-0.43308789,-0.17719932,-0.85603082
1314271210.09836197,-0.43442893,-0.17994682,-0.85621935
1314271210.14950919,-0.43329570,-0.18122342,-0.85548294
1314271210.20146990,-0.43265674,-0.18149915,-0.85385460
1314271210.25252748,-0.43343085,-0.18036798,-0.85311210
1314271210.30083108,-0.43561524,-0.18021443,-0.85350263
1314271210.34979725,-0.43158075,-0.17950250,-0.85367566
1314271210.40102983,-0.43301484,-0.17731440,-0.85708576
1314271210.44952273,-0.43395728,-0.18222247,-0.85538071
1314271210.50156355,-0.43449908,-0.18121248,-0.85528654
1314271210.54848003,-0.43166381,-0.18114212,-0.85300577
1314271210.60149002,-0.43241957,-0.17908745,-0.85637629
1314271210.64849234,-0.43426174,-0.17995444,-0.85567981
1314271210.70149016,-0.43312657,-0.18148236,-0.85494143
1314271210.74947405,-0.43337056,-0.17884947,-0.85417986
1314271210.80045581,-0.43328974,-0.18097362,-0.85535192
1314271210.84850883,-0.43220213,-0.17933127,-0.85728955
1314271210.89808941,-0.43130994,-0.18151316,-0.85391033
1314271210.94946384,-0.43448824,-0.18159099,-0.85515064
1314271211.00087380,-0.43320459,-0.18174274,-0.85401648
1314271211.04846668,-0.43283176,-0.18048625,-0.85440207
1314271211.10050201,-0.43258157,-0.17985801,-0.85465741
1314271211.14952374,-0.43384951,-0.18171683,-0.85577577
1314271211.20045638,-0.43089497,-0.17933770,-0.85800999
1314271211.24850988,-0.43451700,-0.18196191,-0.85567945
1314271211.30044842,-0.43365350,-0.18034975,-0.85458231
1314271211.34847355,-0.43046650,-0.17924546,-0.85533649
1314271211.40092778,-0.43362179,-0.18035582,-0.85405052
1314271211.44846368,-0.43233147,-0.18023355,-0.85503787
1314271211.50053072,-0.43336272,-0.17985477,-0.85417193
1314271211.54995918,-0.43432006,-0.18172427,-0.85461009
1314271211.60102177,-0.43147814,-0.17821869,-0.85632914
1314271211.64945674,-0.43144971,-0.17870167,-0.85817879
1314271211.69818950,-0.43303072,-0.18147634,-0.85559845
1314271211.74848890,-0.43223569,-0.18123131,-0.85582000
1314271211.80149055,-0.43253142,-0.18109798,-0.85623527
1314271211.84864807,-0.43182048,-0.17920572,-0.85766619
1314271211.90045881,-0.43203896,-0.17984001,-0.85687900
1314271211.94845414,-0.43233761,-0.17932971,-0.85729724
1314271212.00057101,-0.42973009,-0.17745918,-0.85862005
1314271212.04852653,-0.43361896,-0.17857538,-0.85605091
1314271212.09780240,-0.43380421,-0.17816354,-0.85911179
1314271212.14958978,-0.43233973,-0.18108594,-0.85754937
1314271212.20124841,-0.43244252,-0.18121611,-0.85702431
1314271212.24845314,-0.43241990,-0.17994136,-0.85875481
1314271212.30172682,-0.43345210,-0.17943689,-0.85788989
1314271212.34950137,-0.43296850,-0.17704797,-0.85854250
1314271212.39246845,-0.43111175,-0.18007344,-0.85947430
1314271212.45250607,-0.43141988,-0.17745264,-0.85752392
1314271212.50168133,-0.43291423,-0.17994423,-0.85798800
1314271212.54961085,-0.43300042,-0.18005322,-0.85944951
1314271212.60050130,-0.43379366,-0.17939594,-0.86135441
1314271212.65249252,-0.43417907,-0.18017249,-0.85885328
1314271212.70048833,-0.43370050,-0.17916280,-0.85976094
1314271212.75244880,-0.43303409,-0.17979583,-0.85998327
1314271212.80151582,-0.43147609,-0.18015361,-0.86333668
1314271212.85248804,-0.43326452,-0.17776856,-0.86133635
1314271212.90046883,-0.43228957,-0.17916472,-0.86100549
1314271212.94861770,-0.43252680,-0.17841522,-0.86036211
1314271213.00054741,-0.43137199,-0.17929520,-0.86148226
1314271213.05243921,-0.43470469,-0.18099900,-0.86324930
1314271213.10048556,-0.43065616,-0.17803122,-0.86290824
1314271213.15040827,-0.43305111,-0.17851350,-0.86237860
1314271213.20045662,-0.43219113,-0.18038958,-0.86403811
1314271213.24953318,-0.43164641,-0.17861536,-0.86600763
1314271213.30046058,-0.43170947,-0.17774934,-0.86469269
1314271213.34952044,-0.43057224,-0.17852481,-0.86382723
1314271213.40131855,-0.43187687,-0.18075304,-0.86560744
1314271213.45249534,-0.43108454,-0.18028089,-0.86357844
1314271213.50149727,-0.43190858,-0.18074697,-0.86613923
1314271213.54991436,-0.43263212,-0.17899811,-0.86447102
1314271213.60044432,-0.43140733,-0.17745875,-0.86865234
1314271213.64959741,-0.43146247,-0.17975543,-0.86532623
1314271213.69888330,-0.43205106,-0.18187334,-0.86640400
1314271213.75024557,-0.43283001,-0.17911009,-0.86554134
1314271213.80047011,-0.43283606,-0.18036367,-0.86579740
1314271213.84852839,-0.43114510,-0.17848833,-0.86664248
1314271213.90149760,-0.43256617,-0.18124489,-0.86590803
1314271213.94844556,-0.43297642,-0.17973381,-0.86581004
1314271214.00049567,-0.43480295,-0.17945018,-0.86697608
1314271214.04959893,-0.43219337,-0.17682719,-0.86817181
1314271214.10006094,-0.43306151,-0.17796092,-0.86702043
1314271214.14961052,-0.43128681,-0.17858671,-0.86903465
1314271214.20090675,-0.43312499,-0.17895257,-0.86820912
1314271214.25249863,-0.43374872,-0.18086152,-0.86531574
1314271214.30046797,-0.43376181,-0.18008181,-0.86770707
1314271214.34846544,-0.43153381,-0.17658061,-0.86840111
1314271214.40044212,-0.43065292,-0.17708048,-0.86953968
1314271214.44961166,-0.43361145,-0.17996074,-0.86743444
1314271214.49795961,-0.43041253,-0.17835683,-0.86792660
1314271214.54948401,-0.43392792,-0.17919609,-0.86812055
1314271214.60061049,-0.43248725,-0.17895275,-0.86883527
1314271214.64845061,-0.43443516,-0.17957292,-0.86761671
1314271214.70144677,-0.43209061,-0.18086199,-0.86694372
1314271214.74074316,-0.43176928,-0.17909375,-0.86813092
1314271214.80060983,-0.43305737,-0.17545225,-0.86664134
1314271214.84858394,-0.43093264,-0.17494266,-0.86943895
1314271214.89782000,-0.43244180,-0.18071806,-0.86828965
1314271214.94960642,-0.43446091,-0.17931706,-0.86801755
1314271215.00058699,-0.43362325,-0.17845280,-0.86744624
1314271215.04846525,-0.43292600,-0.18112366,-0.86513442
1314271215.10103178,-0.43172559,-0.17759643,-0.86721206
1314271215.14971566,-0.43298140,-0.18010928,-0.86594003
1314271215.20047617,-0.43058068,-0.17822355,-0.86846715
1314271215.24963021,-0.43284684,-0.17898139,-0.86580825
1314271215.30447459,-0.43326494,-0.17962623,-0.86383992
1314271215.35362935,-0.43046954,-0.17939842,-0.86447740
1314271215.40059090,-0.43360028,-0.17948534,-0.86491996
1314271215.45247102,-0.43401363,-0.17960483,-0.86507511
1314271215.50052452,-0.43314743,-0.18138097,-0.86435020
1314271215.54948401,-0.43389899,-0.17997882,-0.86546332
1314271215.60044622,-0.43129325,-0.17901060,-0.86465967
1314271215.64047527,-0.43074825,-0.17738625,-0.86437565
1314271215.70298100,-0.43242148,-0.17735852,-0.86526608
1314271215.74855328,-0.43224025,-0.17827149,-0.86233419
1314271215.80140424,-0.43228951,-0.17816095,-0.86088043
1314271215.84955812,-0.43211383,-0.18015341,-0.86271054
1314271215.90049934,-0.43215850,-0.18152508,-0.86363035
1314271215.94970751,-0.43332219,-0.18051794,-0.86264414
1314271216.00057006,-0.43144056,-0.17850488,-0.86480427
1314271216.04956007,-0.43287805,-0.17927508,-0.86183316
1314271216.09841418,-0.43201587,-0.17839117,-0.86311549
1314271216.14955449,-0.43110013,-0.18042773,-0.86159086
1314271216.20058250,-0.43315876,-0.18117656,-0.85998017
1314271216.24845719,-0.43421593,-0.17938825,-0.86164349
1314271216.30045867,-0.43271390,-0.17990948,-0.86142159
1314271216.35031056,-0.43224621,-0.17852131,-0.86246520
1314271216.40080523,-0.43205941,-0.18104213,-0.86190593
1314271216.44849324,-0.43121102,-0.17940274,-0.86332715
1314271216.50045109,-0.43267918,-0.17928876,-0.86076176
1314271216.54847288,-0.43258432,-0.17915708,-0.86141980
1314271216.60045290,-0.43013787,-0.17918654,-0.86114782
1314271216.64845586,-0.43262073,-0.17967635,-0.85982817
1314271216.70044804,-0.43317658,-0.18092221,-0.86024803
1314271216.75018811,-0.43280777,-0.18016684,-0.86076260
1314271216.80046058,-0.43198508,-0.17726779,-0.86245960
1314271216.85008764,-0.43155602,-0.17915888,-0.86228865
1314271216.89813519,-0.43173206,-0.18218529,-0.86108387
1314271216.94944382,-0.43351886,-0.18090546,-0.86146009
1314271217.00147390,-0.43323809,-0.18216518,-0.86143476
1314271217.04847956,-0.42994699,-0.18020247,-0.86033446
1314271217.10144806,-0.43379968,-0.18064952,-0.86161047
1314271217.15002537,-0.43281379,-0.18142042,-0.86101866
1314271217.20084453,-0.43129095,-0.17840803,-0.86227918
1314271217.24961114,-0.43148893,-0.17952378,-0.86347461
1314271217.30493450,-0.43218595,-0.18116777,-0.86177969
1314271217.34960961,-0.43261805,-0.17990346,-0.86207867
1314271217.40051985,-0.43147486,-0.18042913,-0.86108226
1314271217.45249248,-0.43249816,-0.18005185,-0.86008334
1314271217.50115085,-0.43288711,-0.18115546,-0.86221719
1314271217.54988527,-0.43309751,-0.17978372,-0.86104691
1314271217.60048151,-0.43076307,-0.17650510,-0.86451554
1314271217.64847207,-0.43083510,-0.17967688,-0.86158133
1314271217.69874883,-0.43098053,-0.18042625,-0.86184907
1314271217.74962234,-0.43268323,-0.18079366,-0.86101586
1314271217.80153346,-0.43171409,-0.18043210,-0.86056590
1314271217.84845805,-0.43126515,-0.17766012,-0.86175328
1314271217.90135431,-0.43084806,-0.18105459,-0.86196935
1314271217.94853854,-0.43175063,-0.17879395,-0.86097753
1314271218.00176597,-0.43192673,-0.17865916,-0.86165106
1314271218.04858875,-0.43138403,-0.17763738,-0.86374754
1314271218.10199690,-0.43163815,-0.17776297,-0.86349612
1314271218.14948511,-0.43258128,-0.17853028,-0.86129177
1314271218.20113516,-0.43243599,-0.17978844,-0.86127418
1314271218.25249100,-0.43110013,-0.18042773,-0.86159086
1314271218.30048704,-0.43236393,-0.17977788,-0.86233008
1314271218.34949160,-0.43128505,-0.17916200,-0.86227322
1314271218.40047860,-0.43204373,-0.17989153,-0.86376840
1314271218.44859695,-0.43229881,-0.17989145,-0.86351794
1314271218.50170302,-0.43277043,-0.18077698,-0.86247832
1314271218.54952931,-0.43227884,-0.18155077,-0.86111969
1314271218.60148144,-0.43194476,-0.18141612,-0.86229408
1314271218.65246534,-0.43327767,-0.18115382,-0.86197448
1314271218.70113277,-0.43368882,-0.18167451,-0.85987419
1314271218.74959016,-0.43311834,-0.18015616,-0.86144280
1314271218.80051494,-0.43342212,-0.18202887,-0.86224121
1314271218.84860182,-0.43050191,-0.17841280,-0.86263168
1314271218.90144300,-0.43262091,-0.17852271,-0.86195654
1314271218.94861603,-0.43117222,-0.18043830,-0.86053497
1314271219.00127339,-0.43303710,-0.18042263,-0.86011130
1314271219.04846573,-0.43247163,-0.17927974,-0.86180997
1314271219.10129142,-0.43114486,-0.17863820,-0.86438900
1314271219.14848089,-0.43098348,-0.18004927,-0.86185199
1314271219.20131874,-0.43102509,-0.17662917,-0.86439705
1314271219.24851918,-0.43249738,-0.17902388,-0.86221081
1314271219.29831100,-0.43149269,-0.18017478,-0.86135012
1314271219.34960651,-0.43126920,-0.17916502,-0.86200732
1314271219.40148067,-0.43240044,-0.18130092,-0.86086351
1314271219.45249939,-0.43149570,-0.18080157,-0.86147815
